Regional Weather Roundup
Issued by NWS

Home | Current Version | Previous Version | Text Only | Print | Product List | Glossary Off
Versions: 1 2 3 4 5 6 7 8 9 10 11 12 13 14 15 16 17 18 19 20 21 22 23 24 25 26 27 28 29 30 31 32 33 34 35 36 37 38 39 40 41 42 43 44 45 46 47 48 49 50

463
ASUS43 KTOP 211808
RWRKS

WEATHER ROUNDUP FOR KANSAS
NATIONAL WEATHER SERVICE GOODLAND KS
100 PM CDT SAT OCT 21 2017

NOTE:  "FAIR" INDICATES FEW OR NO CLOUDS BELOW 12,000 FEET WITH NO
SIGNIFICANT WEATHER AND/OR OBSTRUCTIONS TO VISIBILITY.

KSZ001>006-013>018-027>032-041>047-211900-
NORTHWEST KANSAS

CITY           SKY/WX    TMP DP  RH WIND       PRES   REMARKS
GOODLAND       MOSUNNY   57  28  33 NW25G37   29.93R
6HR MIN TEMP:  45; 6HR MAX TEMP:  57;

HAYS           CLOUDY    67  36  31 NW23G37   29.84R
HILL CITY      CLOUDY    62  37  39 N23G37    29.87R
6HR MIN TEMP:  57; 6HR MAX TEMP:  64;

RUSSELL        MOSUNNY   67  36  31 NW22      29.80R
6HR MIN TEMP:  63; 6HR MAX TEMP:  69;

$$

KSZ061>065-074>080-084>089-211900-
SOUTHWEST KANSAS

CITY           SKY/WX    TMP DP  RH WIND       PRES   REMARKS
DODGE CITY     SUNNY     68  30  24 N22G36    29.88R
6HR MIN TEMP:  59; 6HR MAX TEMP:  69;

ELKHART          N/A     57  33  40 N16         N/A
GARDEN CITY    CLOUDY    59  36  42 N23G33    29.91R
6HR MIN TEMP:  56; 6HR MAX TEMP:  63;

GREAT BEND     CLOUDY    66  39  37 N21G29    29.82R
LIBERAL        PTSUNNY   63  29  27 N26G32    29.89R
PRATT          CLOUDY    67  39  35 NW18      29.83R
6HR MIN TEMP:  65; 6HR MAX TEMP:  69;

$$

KSZ066>073-081>083-090>101-211900-
SOUTHEAST KANSAS

CITY           SKY/WX    TMP DP  RH WIND       PRES   REMARKS
CHANUTE        CLOUDY    73  64  73 S21G32    29.88R
6HR MIN TEMP:  65; 6HR MAX TEMP:  74;

COFFEYVILLE    CLOUDY    76  65  68 S21G30    29.86F
6HR MIN TEMP:  67; 6HR MAX TEMP:  76;

HUTCHINSON     CLOUDY    74  63  68 SW20      29.77S
6HR MIN TEMP:  69; 6HR MAX TEMP:  74;

MEDICINE LODGE   N/A     75  60  59 SW9G21    29.78R
NEWTON         CLOUDY    71  65  81 SW21G28   29.79R
PARSONS        CLOUDY    75  64  68 S14G28    29.87S
6HR MIN TEMP:  66; 6HR MAX TEMP:  75; 6HR PCP: TRACE;

WICHITA INTL   CLOUDY    74  66  76 S26G32    29.78R
6HR MIN TEMP:  68; 6HR MAX TEMP:  76; 6HR PCP: TRACE;

WICHITA JABRA  CLOUDY    73  66  78 S20G31    29.78R
6HR MIN TEMP:  67; 6HR MAX TEMP:  75;

WICHITA MCCONL PTSUNNY   73  64  73 SW22      29.79R
WINFIELD       LGT RAIN  73  67  81 S23G30    29.81F
6HR MIN TEMP:  66; 6HR MAX TEMP:  74; 6HR PCP: TRACE;

$$

KSZ007>012-019>026-033>040-048>060-102>105-211900-
NORTHEAST KANSAS

CITY           SKY/WX    TMP DP  RH WIND       PRES   REMARKS
CONCORDIA      LGT RAIN  71  51  49 W17G28    29.74R
6HR MIN TEMP:  66; 6HR MAX TEMP:  73; 6HR PCP: TRACE;

EMPORIA        MOSUNNY   75  64  68 S26G39    29.78S
6HR MIN TEMP:  64; 6HR MAX TEMP:  75;

LAWRENCE       CLOUDY    74  65  73 S17G32    29.80S
6HR MIN TEMP:  67; 6HR MAX TEMP:  74;

MANHATTAN      CLOUDY    74  64  71 SW21G29   29.74R
6HR MIN TEMP:  67; 6HR MAX TEMP:  76;

MARYSVILLE     CLOUDY    73  63  68 S21G29    29.71R
OLATHE IND     CLOUDY    72  63  73 S20G31    29.84S
6HR MIN TEMP:  65; 6HR MAX TEMP:  72;

OLATHE EXE     MOSUNNY   73  64  73 S24G32    29.83F
6HR MIN TEMP:  63; 6HR MAX TEMP:  73;

SALINA         CLOUDY    69  46  43 W15       29.77R
6HR MIN TEMP:  68; 6HR MAX TEMP:  75;

TOPEKA BILLARD CLOUDY    73  65  75 S22G32    29.80R
6HR MIN TEMP:  68; 6HR MAX TEMP:  76;

TOPEKA FORBES  CLOUDY    74  65  73 S18G35    29.80R
6HR MIN TEMP:  68; 6HR MAX TEMP:  75;

$$




USA.gov is the U.S. government's official web portal to all federal, state and local government web resources and services.